Pearl, MS

3:12 AM CST on February 28, 2017 (GMT -0600)
Jackson-Evers International

Weather History for KJAN - January, 2014

Change the Weather History Date:

Sunday, January 26, 2014

  Actual Average Record
Temperature  
Mean Temperature 48 °F 46 °F  
Max Temperature 65 °F 57 °F 81 °F (1952)
Min Temperature 31 °F 35 °F 1 °F (1940)
Degree Days  
Heating Degree Days 17 19  
Month to date heating degree days 606 513  
Since 1 July heating degree days 1628 1463  
Cooling Degree Days 0 0  
Month to date cooling degree days 0 0  
Year to date cooling degree days 0 0  
Moisture  
Dew Point 32 °F    
Average Humidity 57    
Maximum Humidity 82    
Minimum Humidity 31    
Precipitation  
Precipitation 0.00 in 0.17 in 3.56 in (1996)
Month to date precipitation 1.54 4.07  
Year to date precipitation 1.54 4.07  
Sea Level Pressure  
Sea Level Pressure 29.93 in    
Wind  
Wind Speed 7 mph (SSE)    
Max Wind Speed 16 mph    
Max Gust Speed 22 mph    
Visibility 10 miles    
Events      
T = Trace of Precipitation, MM = Missing Value Source: NWS Daily Summary

Daily Weather History Graph

Daily Weather History Graph

Search for Another Location

Airport or City:

Trip Planner

Search our weather history database for the weather conditions in past years. The results will help you decide how hot, cold, wet, or windy it might be!

Date:

Astronomy

Jan. 26, 2014 Rise Set
Actual Time 6:57 AM CST 5:28 PM CST
Civil Twilight 6:31 AM CST 5:54 PM CST
Nautical Twilight 6:02 AM CST 6:23 PM CST
Astronomical Twilight 5:33 AM CST 6:53 PM CST
Moon 2:34 AM CST (1/26) 1:19 PM CST (1/26)
Length of Visible Light 11h 22m
Length of Day
10h 30m
Waning Crescent, 23% of the Moon is Illuminated
Jan 26
Waning Crescent
Jan 30
New
Feb 6
First Quarter
Feb 14
Full
Feb 22
Last Quarter

Hourly Weather History & Observations

Time (CST) Temp. Windchill Dew Point Humidity Pressure Visibility Wind Dir Wind Speed Gust Speed Precip Events Conditions
12:54 AM 32.0 °F - 26.1 °F 79% 30.02 in 10.0 mi Calm Calm - N/A   Clear
1:54 AM 32.0 °F - 26.1 °F 79% 30.00 in 10.0 mi Calm Calm - N/A   Clear
2:54 AM 32.0 °F 28.7 °F 27.0 °F 82% 29.99 in 10.0 mi SSE 3.5 mph - N/A   Clear
3:54 AM 34.0 °F 31.0 °F 27.0 °F 75% 29.99 in 10.0 mi SE 3.5 mph - N/A   Clear
4:54 AM 34.0 °F - 28.0 °F 79% 29.99 in 10.0 mi Calm Calm - N/A   Clear
5:54 AM 35.1 °F 32.2 °F 28.9 °F 78% 29.99 in 10.0 mi SSE 3.5 mph - N/A   Mostly Cloudy
6:54 AM 34.0 °F 28.8 °F 28.0 °F 79% 30.00 in 10.0 mi SE 5.8 mph - N/A   Mostly Cloudy
7:54 AM 37.0 °F 31.6 °F 30.9 °F 79% 30.00 in 10.0 mi South 6.9 mph - N/A   Mostly Cloudy
8:54 AM 44.1 °F 40.1 °F 33.1 °F 65% 30.01 in 10.0 mi SSW 6.9 mph - N/A   Scattered Clouds
9:54 AM 50.0 °F - 33.1 °F 52% 30.01 in 10.0 mi SSE 6.9 mph - N/A   Scattered Clouds
10:54 AM 59.0 °F - 30.0 °F 33% 29.99 in 10.0 mi South 16.1 mph - N/A   Scattered Clouds
11:54 AM 62.1 °F - 32.0 °F 32% 29.95 in 10.0 mi South 13.8 mph - N/A   Scattered Clouds
12:54 PM 63.0 °F - 32.0 °F 31% 29.90 in 10.0 mi South 13.8 mph - N/A   Scattered Clouds
1:54 PM 64.0 °F - 33.1 °F 31% 29.86 in 10.0 mi South 9.2 mph - N/A   Mostly Cloudy
2:54 PM 62.1 °F - 33.1 °F 34% 29.85 in 10.0 mi South 11.5 mph - N/A   Mostly Cloudy
3:54 PM 60.1 °F - 34.0 °F 38% 29.84 in 10.0 mi South 12.7 mph - N/A   Overcast
4:54 PM 57.9 °F - 34.0 °F 41% 29.85 in 10.0 mi SSE 6.9 mph - N/A   Mostly Cloudy
5:54 PM 55.9 °F - 35.1 °F 45% 29.86 in 10.0 mi South 4.6 mph - N/A   Mostly Cloudy
6:54 PM 52.0 °F - 35.1 °F 53% 29.86 in 10.0 mi SSE 6.9 mph - N/A   Mostly Cloudy
7:54 PM 54.0 °F - 36.0 °F 51% 29.86 in 10.0 mi SSE 8.1 mph - N/A   Scattered Clouds
8:54 PM 54.0 °F - 36.0 °F 51% 29.85 in 10.0 mi SSE 10.4 mph - N/A   Partly Cloudy
9:54 PM 54.0 °F - 37.0 °F 53% 29.85 in 10.0 mi SSE 8.1 mph - N/A   Overcast
10:54 PM 51.1 °F - 37.9 °F 61% 29.86 in 10.0 mi South 6.9 mph - N/A   Scattered Clouds
11:54 PM 52.0 °F - 39.9 °F 63% 29.86 in 10.0 mi SSE 5.8 mph - N/A   Overcast